Location: Br�ttisellen
(47.4227°N, 8.6287°E)
Time: 00:37:42
(UTC+00:00)

Cosmos 1833 Rocket - Pass Details

Date: 09 April 2020
Orbit: 834 x 838 km, 71.0° (Epoch: 30 May)

Event Time Altitude Azimuth Distance (km) Brightness Sun altitude
Exits shadow 20:39:37 39° 80° (E) 1,236 3.2 -23.4°
Drops below altitude 10° 20:43:52 10° 38° (NE) 2,459 5.2 -23.9°
Sets 20:46:25 0° 33° (NNE) 3,397 6.0 -24.2°
